TimeCDT,TemperatureF,Dew PointF,Humidity,Sea Level PressureIn,VisibilityMPH,Wind Direction,Wind SpeedMPH,Gust SpeedMPH,PrecipitationIn,Events,Conditions,WindDirDegrees,DateUTC
12:54 AM,46.9,39.0,74,29.97,10.0,ESE,3.5,-,0.00,Rain,Light Rain,120,2013-04-14 05:54:00
1:54 AM,46.0,41.0,83,29.97,10.0,East,3.5,-,0.04,Rain,Light Rain,90,2013-04-14 06:54:00
2:54 AM,48.0,39.9,74,29.94,10.0,SE,9.2,-,0.01,Rain,Light Rain,130,2013-04-14 07:54:00
3:54 AM,46.0,42.1,86,29.94,10.0,ESE,8.1,-,0.00,,Overcast,110,2013-04-14 08:54:00
4:54 AM,46.0,41.0,83,29.91,10.0,SE,6.9,-,N/A,,Mostly Cloudy,130,2013-04-14 09:54:00
5:54 AM,45.0,39.9,82,29.86,10.0,ESE,6.9,-,N/A,,Scattered Clouds,110,2013-04-14 10:54:00
6:54 AM,46.9,39.9,77,29.88,10.0,SE,9.2,-,N/A,,Clear,140,2013-04-14 11:54:00
7:54 AM,51.1,41.0,68,29.88,10.0,SSE,11.5,-,N/A,,Clear,150,2013-04-14 12:54:00
8:54 AM,54.0,42.1,64,29.87,10.0,SSE,12.7,19.6,N/A,,Clear,150,2013-04-14 13:54:00
9:54 AM,59.0,44.1,58,29.85,10.0,South,11.5,20.7,N/A,,Clear,170,2013-04-14 14:54:00
10:54 AM,63.0,46.0,54,29.84,10.0,South,15.0,-,N/A,,Clear,180,2013-04-14 15:54:00
11:54 AM,66.9,48.0,51,29.81,10.0,South,15.0,23.0,N/A,,Clear,180,2013-04-14 16:54:00
12:54 PM,70.0,48.9,47,29.78,10.0,South,15.0,-,N/A,,Clear,170,2013-04-14 17:54:00
1:54 PM,73.0,46.0,38,29.75,10.0,South,20.7,27.6,N/A,,Clear,180,2013-04-14 18:54:00
3:54 PM,73.9,45.0,35,29.70,10.0,South,23.0,29.9,N/A,,Clear,180,2013-04-14 20:54:00
4:54 PM,73.9,45.0,35,29.69,10.0,South,24.2,33.4,N/A,,Clear,170,2013-04-14 21:54:00
5:54 PM,72.0,46.0,40,29.68,10.0,SSE,18.4,24.2,N/A,,Clear,160,2013-04-14 22:54:00
6:54 PM,70.0,46.9,44,29.68,10.0,SSE,16.1,-,N/A,,Clear,160,2013-04-14 23:54:00
7:54 PM,69.1,44.1,40,29.69,10.0,South,16.1,26.5,N/A,,Partly Cloudy,170,2013-04-15 00:54:00
8:54 PM,66.9,46.0,47,29.70,10.0,SSE,19.6,25.3,N/A,,Clear,160,2013-04-15 01:54:00
9:54 PM,66.0,48.0,52,29.72,10.0,South,24.2,35.7,N/A,,Clear,170,2013-04-15 02:54:00
10:54 PM,64.0,44.1,48,29.73,10.0,South,21.9,35.7,N/A,,Clear,170,2013-04-15 03:54:00
11:54 PM,61.0,45.0,56,29.75,10.0,South,19.6,28.8,N/A,,Clear,180,2013-04-15 04:54:00